Weather observations for the past three days for
St. James Municipal Airport
Imperial (Metric)
Date Time (cdt) Wind (mph) Vis. (mi.) Weather Sky Cond. Temperature (ºF) Relative Humidity Wind Chill (°F) Heat Index (°F) Pressure Precipitation (in)
Air Dwpt 6 hour altimeter (in) sea level (mb) 1 hr 3 hr 6 hr
Max. Min.
24 00:55 NE 5 5.00 Fog/Mist SCT033 SCT065 OVC075 66.2 66.2 100% 30.09 0.0
24 00:35 E 5 5.00 Fog/Mist FEW032 BKN065 OVC090 66.2 66.2 100% 30.09 0.0
24 00:15 E 6 4.00 Fog/Mist BKN033 OVC070 66.2 66.2 100% 30.09 0.0
23 23:55 E 3 3.00 Fog/Mist OVC034 68 68 100% 30.09 0.0
23 23:35 Calm 4.00 Fog/Mist BKN034 OVC060 68 68 100% 30.09 0.0
23 23:15 Calm 4.00 Fog/Mist OVC060 68 68 100% 30.08 0.0
23 22:55 SE 6 5.00 Fog/Mist FEW022 BKN055 OVC065 68 68 100% 30.08 0.0 0.08
23 22:35 E 8 6.00 Light Rain Fog/Mist SCT015 BKN024 OVC038 69.8 69.8 100% 30.08 0.0
23 22:15 E 7 3.00 Light Rain Fog/Mist FEW003 SCT014 BKN027 69.8 69.8 100% 30.08 0.0
23 21:55 SW 5 1.75 Heavy Rain Fog/Mist SCT003 SCT014 OVC035 71.6 71.6 100% 30.08 0.0 0.04
23 21:35 Calm 9.00 Overcast BKN035 OVC046 71.6 71.6 100% 30.07 0.0
23 21:15 Calm 6.00 Light Rain Fog/Mist OVC035 71.6 71.6 100% 30.07 0.0
23 20:55 Calm 8.00 Mostly Cloudy SCT036 BKN044 BKN060 71.6 71.6 100% 30.06 0.0
23 20:35 E 3 9.00 Overcast SCT048 BKN060 OVC090 71.6 71.6 100% 30.05 0.0
23 20:15 Calm 9.00 Mostly Cloudy BKN048 BKN055 BKN070 73.4 71.6 94% 30.05 0.0
23 19:55 E 3 10.00 Mostly Cloudy FEW048 BKN055 73.4 71.6 94% 30.04 0.0
23 19:35 E 6 10.00 Fair CLR 73.4 71.6 94% 30.03 0.0
23 19:15 E 6 10.00 A Few Clouds FEW055 FEW065 FEW120 75.2 71.6 89% 75 30.03 0.0
23 18:55 E 7 10.00 Mostly Cloudy FEW050 SCT060 BKN120 75.2 71.6 89% 75 30.02 0.0
23 18:35 E 7 10.00 Mostly Cloudy FEW046 SCT055 BKN060 75.2 71.6 89% 75 30.02 0.0
23 18:15 E 6 9.00 Mostly Cloudy SCT055 BKN070 BKN080 75.2 71.6 89% 75 30.02 0.0
23 17:55 E 7 10.00 Partly Cloudy SCT070 SCT080 75.2 69.8 83% 75 30.02 0.0
23 17:35 E 6 9.00 Partly Cloudy SCT065 77 71.6 83% 78 30.02 0.0
23 17:15 E 8 10.00 Fair CLR 77 71.6 83% 78 30.02 0.0
23 16:55 E 7 10.00 Fair CLR 77 71.6 83% 78 30.02 0.0
23 16:35 E 6 10.00 Fair CLR 77 71.6 83% 78 30.02 0.0
23 16:15 Vrbl 6 9.00 Fair CLR 77 71.6 83% 78 30.02 0.0
23 15:55 Calm 9.00 A Few Clouds FEW042 77 71.6 83% 78 30.02 0.0
23 15:35 Calm 9.00 Partly Cloudy SCT044 SCT050 SCT065 75.2 69.8 83% 75 30.03 0.0
23 15:15 Calm 9.00 Mostly Cloudy SCT044 BKN050 BKN060 75.2 68 78% 76 30.03 0.0
23 14:55 Vrbl 5 9.00 Mostly Cloudy SCT048 BKN060 75.2 69.8 83% 75 30.03 0.0
23 14:35 Vrbl 5 9.00 Mostly Cloudy BKN049 BKN065 75.2 69.8 83% 75 30.03 0.0
23 14:15 Calm 9.00 Mostly Cloudy BKN047 75.2 69.8 83% 75 30.03 0.0
23 13:55 Calm 10.00 Partly Cloudy FEW015 FEW048 SCT060 75.2 69.8 83% 75 30.03 0.0
23 13:35 Vrbl 3 10.00 Partly Cloudy FEW015 SCT060 73.4 69.8 89% 30.03 0.0
23 13:15 Calm 10.00 Partly Cloudy SCT070 71.6 69.8 94% 30.03 0.0
23 12:55 Calm 10.00 Mostly Cloudy FEW012 BKN070 71.6 69.8 94% 30.03 0.0
23 12:35 S 5 9.00 Mostly Cloudy SCT010 BKN014 BKN075 69.8 69.8 100% 30.03 0.0
23 12:15 Vrbl 5 9.00 Partly Cloudy SCT008 SCT013 69.8 69.8 100% 30.03 0.0
23 11:55 SE 5 9.00 Fair CLR 68 68 100% 30.02 0.0 0.01
23 11:35 SE 6 6.00 Light Rain Fog/Mist FEW006 66.2 66.2 100% 30.02 0.0
23 11:15 E 9 7.00 Light Rain CLR 66.2 66.2 100% 30.02 0.0
23 10:55 Calm 8.00 Fair CLR 66.2 66.2 100% 30.03 0.0 0.01
23 10:35 NE 5 8.00 Thunderstorm FEW090 66.2 66.2 100% 30.03 0.0
23 10:15 N 6 5.00 Light Rain Fog/Mist FEW016 SCT070 BKN110 64.4 64.4 100% 30.05 0.0
23 09:55 N 8 G 14 7.00 Mostly Cloudy FEW003 SCT019 BKN065 64.4 64.4 100% 30.07 0.0 0.43
23 09:35 N 22 G 28 0.50 Thunderstorm Heavy Rain Fog/Mist and Breezy BKN005 BKN020 OVC035 66.2 66.2 100% 30.08 0.0
23 09:15 Calm 4.00 Thunderstorm in Vicinity Rain Fog/Mist SCT036 BKN045 BKN065 68 68 100% 30.03 0.0
23 08:55 Calm 6.00 Thunderstorm in Vicinity Fog/Mist CLR 68 68 100% 30.02 0.0
23 08:35 Calm 6.00 Fog/Mist SCT040 SCT070 SCT120 68 68 100% 30.02 0.0
23 08:15 Calm 6.00 Thunderstorm in Vicinity Fog/Mist BKN040 BKN046 68 68 100% 30.02 0.0
23 07:55 Calm 5.00 Thunderstorm in Vicinity Fog/Mist FEW046 FEW050 66.2 66.2 100% 30.01 0.0
23 07:35 Calm 4.00 Thunderstorm in Vicinity Fog/Mist SCT050 SCT065 66.2 66.2 100% 30 0.0
23 07:15 Calm 2.50 Fog/Mist SCT049 SCT055 SCT065 64.4 64.4 100% 30 0.0
23 06:35 Calm 3.00 Fog/Mist CLR 62.6 62.6 100% 30 0.0
23 06:15 N 3 2.00 Fog/Mist CLR 62.6 62.6 100% 30 0.0
23 05:55 Calm 2.50 Fog/Mist SCT120 62.6 62.6 100% 29.99 0.0
23 05:35 Calm 3.00 Fog/Mist SCT050 SCT070 BKN120 62.6 62.6 100% 29.99 0.0
23 05:15 Calm 4.00 Fog/Mist SCT050 BKN055 62.6 62.6 100% 29.99 0.0
23 04:55 N 6 2.00 Fog/Mist BKN050 BKN055 62.6 62.6 100% 29.99 0.0
23 04:35 Calm 3.00 Light Rain Fog/Mist SCT049 62.6 62.6 100% 29.98 0.0
23 04:15 Calm 3.00 Fog/Mist FEW055 64.4 64.4 100% 29.98 0.0
23 03:55 Calm 3.00 Light Rain Fog/Mist FEW055 64.4 64.4 100% 29.98 0.0
23 03:35 W 5 3.00 Light Rain Fog/Mist CLR 64.4 64.4 100% 29.98 0.0
23 03:15 NW 5 3.00 Light Rain Fog/Mist CLR 64.4 64.4 100% 29.99 0.0
23 02:55 W 5 4.00 Light Rain Fog/Mist CLR 64.4 64.4 100% 29.98 0.0
23 02:35 W 5 4.00 Light Rain Fog/Mist CLR 66.2 66.2 100% 29.99 0.0
23 02:15 W 5 4.00 Fog/Mist CLR 64.4 64.4 100% 29.99 0.0
23 01:55 W 5 3.00 Light Rain Fog/Mist CLR 66.2 66.2 100% 29.99 0.0
23 01:35 Calm 3.00 Light Rain Fog/Mist CLR 66.2 66.2 100% 29.99 0.0
23 01:15 Calm 5.00 Fog/Mist CLR 66.2 66.2 100% 29.99 0.0
23 00:55 N 3 6.00 Fog/Mist CLR 66.2 66.2 100% 29.98 0.0
23 00:35 N 3 8.00 Fair CLR 68 68 100% 29.98 0.0
23 00:15 W 7 8.00 A Few Clouds FEW048 FEW060 69.8 69.8 100% 29.98 0.0
22 23:55 W 7 9.00 A Few Clouds FEW037 FEW060 69.8 69.8 100% 29.98 0.0
22 23:35 NW 7 8.00 Partly Cloudy SCT037 SCT043 69.8 69.8 100% 29.99 0.0
22 23:15 W 6 8.00 Partly Cloudy SCT037 SCT070 69.8 69.8 100% 29.98 0.0
22 22:55 W 6 8.00 Mostly Cloudy BKN037 BKN046 69.8 69.8 100% 29.98 0.0
22 22:35 SW 5 8.00 Mostly Cloudy BKN037 BKN044 BKN090 69.8 69.8 100% 29.98 0.0
22 22:15 SW 6 8.00 Fair CLR 69.8 69.8 100% 29.98 0.0
22 21:55 W 6 9.00 Fair CLR 69.8 69.8 100% 29.98 0.0
22 21:35 W 6 9.00 Fair CLR 69.8 69.8 100% 29.98 0.0
22 21:15 SW 6 8.00 Fair CLR 69.8 69.8 100% 29.98 0.0
22 20:55 W 3 9.00 Fair CLR 69.8 69.8 100% 29.98 0.0
22 20:35 W 6 10.00 Fair CLR 71.6 69.8 94% 29.97 0.0
22 20:15 SW 5 9.00 Fair CLR 73.4 69.8 89% 29.97 0.0
22 19:55 W 5 9.00 Fair CLR 75.2 68 78% 76 29.97 0.0
22 19:35 W 5 10.00 Fair CLR 75.2 68 78% 76 29.97 0.0
22 19:15 W 7 10.00 A Few Clouds FEW047 FEW055 FEW070 77 68 74% 79 29.97 0.0
22 18:55 W 6 G 12 10.00 Mostly Cloudy SCT048 BKN055 BKN065 77 69.8 79% 79 29.96 0.0
22 18:35 W 3 9.00 Partly Cloudy FEW049 SCT060 80.6 73.4 79% 85 29.96 0.0
22 18:15 NW 5 10.00 Fair CLR 82.4 71.6 70% 87 29.96 0.0
22 17:55 Vrbl 6 10.00 Fair CLR 82.4 71.6 70% 87 29.96 0.0
22 17:35 Calm 10.00 A Few Clouds FEW047 FEW055 FEW070 80.6 71.6 74% 85 29.96 0.0
22 17:15 W 6 G 12 9.00 A Few Clouds FEW055 82.4 71.6 70% 87 29.97 0.0
22 16:55 W 8 10.00 Fair CLR 82.4 71.6 70% 87 29.97 0.0
22 16:35 Vrbl 5 10.00 Fair CLR 82.4 71.6 70% 87 29.97 0.0
22 16:15 NW 6 10.00 Fair CLR 82.4 69.8 66% 86 29.98 0.0
22 15:55 Vrbl 5 10.00 A Few Clouds FEW046 82.4 69.8 66% 86 29.98 0.0
22 15:35 Vrbl 5 10.00 Fair CLR 82.4 69.8 66% 86 29.99 0.0
22 15:15 SW 5 10.00 Fair CLR 82.4 71.6 70% 87 30 0.0
22 14:55 SW 6 G 12 10.00 Partly Cloudy FEW043 SCT050 SCT070 82.4 71.6 70% 87 30.01 0.0
22 14:35 Vrbl 6 G 13 10.00 Partly Cloudy FEW041 FEW049 SCT055 82.4 71.6 70% 87 30.02 0.0
22 14:15 S 8 10.00 A Few Clouds FEW037 82.4 71.6 70% 87 30.02 0.0
22 13:55 SW 7 10.00 A Few Clouds FEW037 80.6 71.6 74% 85 30.03 0.0
22 13:35 SW 5 10.00 A Few Clouds FEW036 80.6 71.6 74% 85 30.03 0.0
22 13:15 Vrbl 5 10.00 Fair CLR 80.6 71.6 74% 85 30.04 0.0
22 12:55 Vrbl 5 10.00 Fair CLR 78.8 68 70% 81 30.04 0.0
22 12:35 Calm 10.00 Fair CLR 78.8 69.8 74% 81 30.05 0.0
22 12:15 S 5 10.00 Fair CLR 78.8 69.8 74% 81 30.05 0.0
22 11:55 SW 5 10.00 Fair CLR 78.8 69.8 74% 81 30.06 0.0
22 11:35 W 3 10.00 Fair CLR 77 69.8 79% 79 30.07 0.0
22 11:15 Calm 10.00 Fair CLR 75.2 71.6 89% 75 30.06 0.0
22 10:55 Calm 10.00 Fair CLR 75.2 71.6 89% 75 30.06 0.0
22 10:35 Calm 10.00 Fair CLR 73.4 73.4 100% 30.07 0.0
22 10:15 Calm 10.00 Fair CLR 73.4 71.6 94% 30.06 0.0
22 09:55 Calm 10.00 Fair CLR 71.6 71.6 100% 30.07 0.0
22 09:35 Calm 10.00 Fair CLR 69.8 69.8 100% 30.07 0.0
22 09:15 Calm 9.00 Fair CLR 68 68 100% 30.07 0.0
22 08:55 Calm 9.00 Fair CLR 68 68 100% 30.07 0.0
22 08:35 Calm 6.00 Fog/Mist FEW003 66.2 66.2 100% 30.07 0.0
22 08:15 Calm 6.00 Fog/Mist CLR 64.4 64.4 100% 30.07 0.0
22 07:55 Calm 4.00 Fog/Mist CLR 64.4 64.4 100% 30.07 0.0
22 07:35 Calm 2.50 Fog/Mist CLR 62.6 62.6 100% 30.07 0.0
22 07:15 Calm 2.50 Fog/Mist CLR 60.8 60.8 100% 30.06 0.0
22 06:55 Calm 0.25 Fog VV002 60.8 60.8 100% 30.06 0.0
22 06:35 Calm 0.15 Fog BKN001 60.8 60.8 100% 30.06 0.0
22 06:15 SE 3 0.25 Fog VV002 60.8 60.8 100% 30.07 0.0
22 05:55 Calm 0.15 Fog VV000 59 59 100% 30.06 0.0
22 05:35 Calm 0.15 Fog VV000 60.8 60.8 100% 30.07 0.0
22 05:15 Calm 0.25 Fog BKN001 60.8 60.8 100% 30.07 0.0
22 04:55 Calm 0.25 Fog VV002 59 59 100% 30.07 0.0
22 04:35 W 3 1.00 Fog/Mist CLR 60.8 60.8 100% 30.07 0.0
22 04:15 Calm 1.00 Fog/Mist CLR 60.8 60.8 100% 30.07 0.0
22 03:55 Calm 1.25 Fog/Mist CLR 60.8 60.8 100% 30.07 0.0
22 03:35 Calm 1.25 Fog/Mist CLR 60.8 60.8 100% 30.07 0.0
22 03:15 Calm 1.25 Fog/Mist CLR 60.8 60.8 100% 30.08 0.0
22 02:55 Calm 3.00 Fog/Mist CLR 62.6 62.6 100% 30.09 0.0
22 02:35 Calm 5.00 Fog/Mist CLR 62.6 62.6 100% 30.09 0.0
22 02:15 SW 3 1.50 Fog/Mist CLR 62.6 62.6 100% 30.1 0.0
22 01:55 W 3 2.00 Fog/Mist CLR 60.8 60.8 100% 30.1 0.0
22 01:35 Calm 4.00 Fog/Mist CLR 62.6 62.6 100% 30.1 0.0
22 01:15 S 3 5.00 Fog/Mist CLR 62.6 62.6 100% 30.11 0.0
22 00:55 Calm 3.00 Fog/Mist CLR 62.6 62.6 100% 30.1 0.0
22 00:35 Calm 5.00 Fog/Mist CLR 62.6 62.6 100% 30.11 0.0
22 00:15 Calm 6.00 Fog/Mist CLR 64.4 64.4 100% 30.11 0.0
21 23:55 S 5 5.00 Fog/Mist CLR 64.4 64.4 100% 30.11 0.0
21 23:35 Calm 6.00 Fog/Mist FEW090 64.4 64.4 100% 30.11 0.0
21 23:15 E 3 6.00 Fog/Mist CLR 64.4 64.4 100% 30.12 0.0
21 22:55 E 3 4.00 Fog/Mist CLR 64.4 64.4 100% 30.11 0.0
21 22:35 E 3 7.00 Fair CLR 66.2 66.2 100% 30.11 0.0
21 22:15 Calm 4.00 Fog/Mist CLR 66.2 66.2 100% 30.11 0.0
21 21:55 Calm 4.00 Fog/Mist CLR 66.2 66.2 100% 30.11 0.0
21 21:35 Calm 6.00 Fog/Mist CLR 66.2 66.2 100% 30.11 0.0
21 21:15 Calm 7.00 A Few Clouds FEW046 68 68 100% 30.11 0.0
21 20:55 Calm 8.00 Fair CLR 68 68 100% 30.11 0.0
21 20:35 Calm 10.00 Fair CLR 69.8 69.8 100% 30.11 0.0
21 20:15 Calm 10.00 Fair CLR 69.8 69.8 100% 30.11 0.0
21 19:55 E 5 10.00 Fair CLR 71.6 71.6 100% 30.1 0.0
21 19:35 E 5 10.00 Fair CLR 73.4 71.6 94% 30.1 0.0
21 19:15 Calm 10.00 Fair CLR 73.4 69.8 89% 30.09 0.0
21 18:55 N 5 10.00 Fair CLR 73.4 69.8 89% 30.09 0.0
21 18:35 N 5 10.00 Fair CLR 73.4 69.8 89% 30.09 0.0
21 18:15 Calm 10.00 Fair CLR 77 66.2 69% 79 30.09 0.0
21 17:55 Calm 10.00 Fair CLR 77 66.2 69% 79 30.09 0.0
21 17:35 E 5 10.00 Fair CLR 75.2 68 78% 76 30.1 0.0
21 17:15 Calm 10.00 Fair CLR 73.4 68 83% 30.1 0.0
21 16:55 Calm 10.00 Fair CLR 69.8 68 94% 30.11 0.0 0.02
21 16:35 N 9 G 16 7.00 Light Rain CLR 68 68 100% 30.12 0.0
21 16:15 Vrbl 6 G 12 8.00 Light Rain CLR 68 68 100% 30.1 0.0
21 15:55 SW 8 3.00 Light Rain Fog/Mist CLR 68 68 100% 30.11 0.0 0.08
21 15:35 S 5 3.00 Rain Fog/Mist FEW060 68 66.2 94% 30.13 0.0
21 15:15 N 7 3.00 Light Rain Fog/Mist FEW023 SCT075 BKN120 68 66.2 94% 30.16 0.0
21 14:55 E 18 10.00 Thunderstorm in Vicinity FEW020 SCT034 BKN060 69.8 66.2 88% 30.17 0.0
21 14:35 NE 13 G 29 10.00 Thunderstorm in Vicinity BKN034 BKN040 BKN110 73.4 68 83% 30.16 0.0
21 14:15 Vrbl 3 10.00 Thunderstorm in Vicinity FEW033 FEW038 SCT100 80.6 69.8 70% 84 30.15 0.0
21 13:55 Vrbl 5 10.00 A Few Clouds FEW110 80.6 69.8 70% 84 30.15 0.0
21 13:35 Calm 10.00 A Few Clouds FEW110 78.8 69.8 74% 81 30.15 0.0
21 13:15 Calm 10.00 Thunderstorm in Vicinity SCT110 77 69.8 79% 79 30.15 0.0
21 12:55 Vrbl 5 10.00 Mostly Cloudy BKN110 78.8 69.8 74% 81 30.15 0.0
21 12:35 Vrbl 3 10.00 A Few Clouds FEW120 78.8 71.6 79% 82 30.15 0.0
21 12:15 Vrbl 6 10.00 A Few Clouds FEW040 FEW110 77 71.6 83% 78 30.16 0.0
21 11:55 SE 7 10.00 A Few Clouds FEW020 FEW031 FEW110 77 71.6 83% 78 30.16 0.0
21 11:35 Calm 10.00 Partly Cloudy FEW020 SCT120 77 71.6 83% 78 30.16 0.0
21 11:15 Calm 10.00 Fair CLR 77 71.6 83% 78 30.16 0.0
21 10:55 Calm 10.00 Fair CLR 75.2 73.4 94% 74 30.15 0.0
21 10:35 Calm 10.00 Fair CLR 73.4 73.4 100% 30.15 0.0
21 10:15 Calm 10.00 Fair CLR 73.4 73.4 100% 30.15 0.0
21 09:55 Calm 10.00 Fair CLR 71.6 71.6 100% 30.15 0.0
21 09:35 Calm 10.00 Fair CLR 71.6 71.6 100% 30.16 0.0
21 09:15 Calm 10.00 Fair CLR 69.8 69.8 100% 30.15 0.0
21 08:55 Calm 9.00 Fair CLR 69.8 69.8 100% 30.15 0.0
21 08:35 Calm 6.00 Fog/Mist CLR 68 68 100% 30.16 0.0
21 08:15 SW 3 5.00 Fog/Mist CLR 66.2 66.2 100% 30.15 0.0
21 07:55 SW 3 4.00 Fog/Mist CLR 64.4 64.4 100% 30.15 0.0
21 07:35 Calm 3.00 Fog/Mist CLR 64.4 64.4 100% 30.15 0.0
21 07:15 SW 5 3.00 Fog/Mist CLR 64.4 64.4 100% 30.14 0.0
21 06:55 Calm 2.50 Fog/Mist CLR 62.6 62.6 100% 30.14 0.0
21 06:35 Calm 3.00 Fog/Mist CLR 62.6 62.6 100% 30.14 0.0
21 06:15 SW 5 3.00 Fog/Mist CLR 62.6 62.6 100% 30.13 0.0
21 05:55 Calm 1.25 Fog/Mist CLR 60.8 60.8 100% 30.13 0.0
21 05:35 Calm 4.00 Fog/Mist CLR 60.8 60.8 100% 30.13 0.0
21 05:15 Calm 3.00 Fog/Mist CLR 62.6 62.6 100% 30.13 0.0
21 04:55 Calm 3.00 Fog/Mist CLR 62.6 62.6 100% 30.13 0.0
21 04:35 Calm 3.00 Fog/Mist CLR 62.6 62.6 100% 30.13 0.0
21 04:15 Calm 5.00 Fog/Mist CLR 62.6 62.6 100% 30.13 0.0
21 03:55 Calm 4.00 Fog/Mist CLR 62.6 62.6 100% 30.13 0.0
21 03:35 SW 3 4.00 Fog/Mist CLR 64.4 64.4 100% 30.13 0.0
21 03:15 S 5 5.00 Fog/Mist CLR 62.6 62.6 100% 30.13 0.0
21 02:55 Calm 6.00 Fog/Mist CLR 64.4 64.4 100% 30.13 0.0
21 02:35 SW 5 6.00 Fog/Mist FEW060 FEW065 64.4 64.4 100% 30.13 0.0
21 02:15 SW 5 6.00 Fog/Mist FEW065 FEW100 64.4 64.4 100% 30.13 0.0
21 01:55 Calm 6.00 Fog/Mist CLR 64.4 64.4 100% 30.13 0.0
21 01:35 Calm 7.00 A Few Clouds FEW060 64.4 64.4 100% 30.13 0.0
21 01:15 S 5 8.00 A Few Clouds FEW060 FEW080 64.4 64.4 100% 30.12 0.0
Date Time (cdt) Wind (mph) Vis. (mi.) Weather Sky Cond. Air Dwpt Max. Min. Relative Humidity Wind Chill (°F) Heat Index (°F) altimeter (in) sea level (mb) 1 hr 3 hr 6 hr
6 hour
Temperature (ºF) Pressure Precipitation (in)